Regional Weather Roundup
Issued by NWS

Home | Current Version | Previous Version | Text Only | Print | Product List | Glossary Off
Versions: 1 2 3 4 5 6 7 8 9 10 11 12 13 14 15 16 17 18 19 20 21 22 23 24 25 26 27 28 29 30 31 32 33 34 35 36 37 38 39 40 41 42 43 44 45 46 47 48 49 50

000
ASUS45 KBOU 032207
RWRCO

WEATHER ROUNDUP FOR COLORADO
NATIONAL WEATHER SERVICE DENVER/BOULDER CO
400 PM MDT THU SEP 03 2015

NOTE: "FAIR" INDICATES FEW OR NO CLOUDS BELOW 12000 FEET WITH NO
SIGNIFICANT WEATHER AND/OR OBSTRUCTIONS TO VISIBILITY.

COZ001>005-013-030-031-032300-
...NORTHWEST COLORADO...

CITY           SKY/WX    TMP DP  RH WIND       PRES   REMARKS
CRAIG          CLOUDY    75  44  33 S15G24    30.08F
HAYDEN         CLOUDY    66  45  45 E10G20    30.11F
MEEKER         PTSUNNY   76  46  34 S12       30.09F
MOUNT WERNER   NOT AVBL
STEAMBOAT SPGS CLOUDY    63  47  56 S5        30.15S
WALDEN         CLOUDY    54  46  76 SE16G22   30.24R
$$

COZ006>008-011-032300-
...WEST CENTRAL VALLEYS...

CITY           SKY/WX    TMP DP  RH WIND       PRES   REMARKS
GRAND JUNCTION MOSUNNY   78  49  35 S17G25    29.98F
MONTROSE       MOSUNNY   74  51  44 S7        30.10F
EAGLE          PTSUNNY   64  52  63 VRB7      30.21F
RIFLE          MOSUNNY   70  56  61 N6        30.09F
DELTA          MOSUNNY   81  47  29 E12G17    30.05F
NUCLA          MOSUNNY   84  36  17 SW12G18   30.07F
$$

COZ017>023-064>068-032300-
...SOUTHWEST COLORADO...

CITY           SKY/WX    TMP DP  RH WIND       PRES   REMARKS
DURANGO        MOSUNNY   79  40  24 VRB5G22   30.11F
CORTEZ         PTSUNNY   80  43  26 S8        30.07F
PAGOSA SPRINGS CLOUDY    70  45  39 N3        30.21F
TELLURIDE      MOSUNNY   63  46  54 SW5       30.31F
WOLF CREEK PAS NOT AVBL
$$

COZ009-010-012-014-032>034-037-058>063-032300-
...CENTRAL COLORADO...

CITY           SKY/WX    TMP DP  RH WIND       PRES   REMARKS
ASPEN          CLOUDY    62  47  57 N3        30.24F
BUENA VISTA    PTSUNNY   65  47  52 CALM      30.22F
COPPER MTN     TSTM      45  41  87 W12       30.49F VSB 1/4
BERTHOUD PASS  HAZE      37  28  70 NW18G28   30.52S THUNDER VSB<1/4
COTTONWOOD PAS PTSUNNY   61  45  55 SW5       30.35S
GUNNISON       PTSUNNY   63  50  63 N8        30.26F
KREMMLING      RAIN      54  46  76 W7        30.26F
LEADVILLE      PTSUNNY   55  46  71 N7        30.35F
MONARCH PASS   PTSUNNY   48  41  76 W20G26    30.59F
SALIDA         PTSUNNY   69  49  49 N3        30.27F
SUNLIGHT       PTSUNNY   55  48  76 CALM      30.45F
WILKERSON PASS TSTM      45  41  87 W8G21     30.45F
$$

COZ069>075-032300-
...SAN LUIS VALLEY/SANGRE DE CRISTO MOUNTAINS...

CITY           SKY/WX    TMP DP  RH WIND       PRES   REMARKS
ALAMOSA        CLOUDY    69  44  40 VRB3      30.17F
LA VETA PASS   PTSUNNY   68  37  32 S8        30.34F
SAGUACHE       LGT RAIN  59  52  77 N6        30.24F
$$

COZ035-036-038>040-032300-
...NORTHERN COLORADO FRONT RANGE...

CITY           SKY/WX    TMP DP  RH WIND       PRES   REMARKS
DENVER INTL AP PTSUNNY   83  41  22 N6        29.98S
DMNS CITY PARK   N/A     75  47  36 NW13G21   29.99R
AURORA         PTSUNNY   82  43  25 NE6       30.00S
FRONT RANGE AP CLOUDY    81  41  24 N8        29.99F
ERIE MUNI ARPT CLOUDY    71  53  52 NW15G25   29.99F
BOULDER MUN AP CLOUDY    70  54  56 W12       30.01F
CENTENNIAL     PTSUNNY   80  44  27 N6        30.01F
BROOMFIELD     PTSUNNY   73  48  40 NW18G29   30.02S
FORT COLLINS   CLOUDY    75  46  35 W16       30.00R
LONGMONT       CLOUDY    69  55  60 NW23G29   30.02F
$$

COZ041-046-047-076>085-087-088-032300-
...PIKES PEAK/PALMER DIVIDE AND SOUTHERN FOOTHILLS...

CITY           SKY/WX    TMP DP  RH WIND       PRES   REMARKS
COLO. SPRINGS  CLOUDY    82  43  25 N5        30.02F
A. F. ACADEMY  CLOUDY    73  48  41 N15       30.06S
ELLICOTT       CLOUDY   N/A N/A N/A NE12      30.00F
FALCON         CLOUDY    78  43  28 MISG      30.08F
FORT CARSON    CLOUDY    84  46  26 N5        29.98F
LIMON          PTSUNNY   84  44  24 N10       29.94F
MONUMENT HILL  CLOUDY    70  46  43 W14       30.11S
TRINIDAD       PTSUNNY   85  42  22 W8        29.97F
$$

COZ042>045-048>051-090-091-032300-
...NORTHEAST COLORADO...

CITY           SKY/WX    TMP DP  RH WIND       PRES   REMARKS
GREELEY ARPT   CLOUDY    81  46  30 CALM      29.95S
AKRON          MOSUNNY   89  41  18 MISG      29.89F
BURLINGTON     CLOUDY    91  45  20 S12G21    29.85F
WRAY           CLOUDY    98  38  12 E5        29.81F
STERLING       MOSUNNY   91  46  21 NW13      29.85F
HOLYOKE        CLOUDY    95  50  21 SE8       29.82F
FORT MORGAN    MOSUNNY   86  42  21 W12       29.91F
$$

COZ086-089-092>099-032300-
...SOUTHEAST COLORADO...

CITY           SKY/WX    TMP DP  RH WIND       PRES   REMARKS
PUEBLO         CLOUDY    94  42  16 VRB5      29.87F
LA JUNTA       PTSUNNY   95  43  16 SW9       29.82F
LAMAR          CLOUDY    98  48  18 S17G24    29.77F
SPRINGFIELD      N/A     94  43  17 S16G35    29.87F
$$




USA.gov is the U.S. government's official web portal to all federal, state and local government web resources and services.